Weather History for Glens Falls, NY

Change the Weather History Date:

Monday, October 14, 2013

  Actual Average Record
Temperature  
Mean Temperature 55 °F 47 °F  
Max Temperature 64 °F 59 °F 75 °F (2000)
Min Temperature 46 °F 35 °F 19 °F (1993)
Degree Days  
Heating Degree Days 10 18  
Month to date heating degree days 140 217  
Since 1 July heating degree days 425 502  
Cooling Degree Days 0 0  
Month to date cooling degree days 0 0  
Year to date cooling degree days 537 351  
Growing Degree Days 6 (Base 50)    
Moisture  
Dew Point 50 °F    
Average Humidity 80    
Maximum Humidity 93    
Minimum Humidity 67    
Precipitation  
Precipitation T in 0.12 in 1.00 in (2011)
Month to date precipitation 0.95 1.62  
Year to date precipitation 28.65 30.81  
Sea Level Pressure  
Sea Level Pressure 30.31 in    
Wind  
Wind Speed 3 mph (South)    
Max Wind Speed 9 mph    
Max Gust Speed 12 mph    
Visibility 10 miles    
Events      
T = Trace of Precipitation, MM = Missing Value Source: NWS Daily Summary

Daily Weather History Graph

Daily Weather History Graph

Search for Another Location

Airport:

Trip Planner

Search our weather history database for the weather conditions in past years. The results will help you decide how hot, cold, wet, or windy it might be!

Date:

Astronomy

Oct. 14, 2013 Rise Set
Actual Time 7:07 AM EDT 6:12 PM EDT
Civil Twilight 6:38 AM EDT 6:41 PM EDT
Nautical Twilight 6:05 AM EDT 7:14 PM EDT
Astronomical Twilight 5:32 AM EDT 7:47 PM EDT
Moon 3:47 PM EDT (10/14) 2:13 AM EDT (10/14)
Length of Visible Light 12h 02m
Length of Day
11h 05m
Waxing Gibbous, 79% of the Moon is Illuminated
Oct 14
Waxing Gibbous
Oct 18
Full
Oct 26
Last Quarter
Nov 3
New
Nov 10
First Quarter

Hourly Weather History & Observations

Time (EDT) Temp. Dew Point Humidity Pressure Visibility Wind Dir Wind Speed Gust Speed Precip Events Conditions
12:53 AM 50.0 °F 46.0 °F 86% 30.35 in 10.0 mi SSW 3.5 mph - N/A   Clear
1:53 AM 52.0 °F 48.0 °F 86% 30.35 in 10.0 mi SSW 5.8 mph - N/A   Overcast
2:53 AM 52.0 °F 48.0 °F 86% 30.35 in 10.0 mi South 4.6 mph - N/A   Overcast
3:53 AM 52.0 °F 46.9 °F 83% 30.34 in 10.0 mi South 5.8 mph - N/A   Overcast
4:53 AM 52.0 °F 46.9 °F 83% 30.34 in 10.0 mi South 3.5 mph - N/A   Overcast
5:53 AM 48.9 °F 46.0 °F 90% 30.34 in 10.0 mi South 3.5 mph - N/A   Clear
6:53 AM 48.9 °F 46.9 °F 93% 30.35 in 9.0 mi Calm Calm - N/A   Overcast
7:53 AM 51.1 °F 46.9 °F 86% 30.35 in 10.0 mi South 3.5 mph - N/A   Overcast
8:53 AM 52.0 °F 46.9 °F 83% 30.36 in 10.0 mi Calm Calm - N/A   Overcast
9:53 AM 53.1 °F 46.9 °F 80% 30.35 in 10.0 mi SSW 6.9 mph - N/A   Overcast
10:53 AM 55.0 °F 48.0 °F 77% 30.34 in 10.0 mi SW 5.8 mph - N/A   Overcast
11:53 AM 57.0 °F 48.9 °F 74% 30.33 in 6.0 mi South 4.6 mph - 0.00 in   Haze
12:53 PM 59.0 °F 48.9 °F 69% 30.30 in 3.0 mi Variable 3.5 mph - N/A   Haze
1:53 PM 60.1 °F 51.1 °F 72% 30.27 in 10.0 mi South 3.5 mph - 0.00 in   Overcast
2:53 PM 63.0 °F 51.1 °F 65% 30.26 in 10.0 mi Variable 3.5 mph - N/A   Overcast
3:53 PM 63.0 °F 51.1 °F 65% 30.25 in 10.0 mi SSE 5.8 mph - N/A   Overcast
4:53 PM 63.0 °F 51.1 °F 65% 30.25 in 10.0 mi SE 3.5 mph - N/A   Overcast
5:53 PM 63.0 °F 52.0 °F 67% 30.26 in 10.0 mi Calm Calm - N/A   Overcast
6:53 PM 60.1 °F 54.0 °F 80% 30.27 in 10.0 mi Calm Calm - N/A   Overcast
7:53 PM 61.0 °F 53.1 °F 75% 30.27 in 10.0 mi Calm Calm - N/A   Overcast
8:36 PM 59.0 °F 53.6 °F 82% 30.27 in 10.0 mi North 4.6 mph - N/A   Overcast
8:53 PM 59.0 °F 54.0 °F 83% 30.28 in 10.0 mi NNW 4.6 mph - N/A   Overcast
9:53 PM 60.1 °F 54.0 °F 80% 30.29 in 10.0 mi NNW 3.5 mph - N/A   Overcast
10:53 PM 57.9 °F 55.0 °F 90% 30.28 in 10.0 mi Calm Calm - N/A   Overcast
11:18 PM 59.0 °F 55.4 °F 88% 30.27 in 10.0 mi Calm Calm - N/A   Overcast
11:53 PM 57.9 °F 54.0 °F 87% 30.27 in 10.0 mi North 3.5 mph - N/A   Overcast